Location: *
(37.9500°N, 27.3666°E)
Time: 11:46:11
(UTC+00:00)

X-37B - Pass Details

Date: 05 December 2022
Orbit: 277 x 277 km, 45.0° (Epoch: 01 November)

Event Time Altitude Azimuth Distance (km) Brightness Sun altitude
Rises 15:56:46 0° 207° (SSW) 1,899 4.8 -12.7°
Reaches altitude 10° 15:59:05 10° 184° (S) 1,091 3.1 -13.2°
Maximum altitude 16:00:42 16° 142° (SE) 835 2.1 -13.5°
Enters shadow 16:00:54 16° 136° (SE) 840 2.0 -13.5°
